N447BF MDJB-MDJB

Flight info

Callsign N447BF
Flight time 0h 4m
Altitude 4000
Route VFR
Aircraft B407/L-SFG/C

Departure

Time 2026-05-06 00:41
Airport La Isabela International Airport (MDJB)

Arrival

Time 2026-05-06 00:46
Airport La Isabela International Airport (MDJB)
Time Latitude Longitude Altitude Speed Heading
2026-05-06 00:38 18.57851 -69.98252 83 ft 0 kts 97°
2026-05-06 00:40 18.57852 -69.98253 89 ft 1 kts 159°
2026-05-06 00:40 18.57849 -69.98267 92 ft 4 kts 192°
2026-05-06 00:40 18.57848 -69.98280 96 ft 7 kts 194°
2026-05-06 00:40 18.57824 -69.98329 104 ft 22 kts 190°
2026-05-06 00:41 18.57384 -69.98360 246 ft 94 kts 178°
2026-05-06 00:41 18.56652 -69.98246 559 ft 122 kts 165°
2026-05-06 00:41 18.55771 -69.98019 684 ft 132 kts 162°
2026-05-06 00:41 18.54877 -69.97783 833 ft 135 kts 164°
2026-05-06 00:42 18.53968 -69.97530 893 ft 133 kts 161°
2026-05-06 00:42 18.53148 -69.97239 1244 ft 108 kts 155°
2026-05-06 00:42 18.52399 -69.96902 1377 ft 123 kts 152°
2026-05-06 00:42 18.51608 -69.96541 1362 ft 126 kts 154°
2026-05-06 00:43 18.50766 -69.96247 1335 ft 128 kts 159°
2026-05-06 00:43 18.49889 -69.96025 1302 ft 130 kts 165°
2026-05-06 00:43 18.48988 -69.95890 1274 ft 132 kts 169°
2026-05-06 00:43 18.48077 -69.95779 1244 ft 134 kts 170°
2026-05-06 00:44 18.47139 -69.95684 1217 ft 135 kts 171°
2026-05-06 00:44 18.46193 -69.95601 1191 ft 137 kts 172°
2026-05-06 00:44 18.45268 -69.95458 1125 ft 132 kts 159°
2026-05-06 00:44 18.44426 -69.95046 817 ft 137 kts 147°
2026-05-06 00:45 18.43659 -69.94462 607 ft 138 kts 134°
2026-05-06 00:45 18.43578 -69.93599 351 ft 130 kts 59°
2026-05-06 00:45 18.44084 -69.92896 337 ft 113 kts 50°
2026-05-06 00:45 18.44654 -69.92397 337 ft 99 kts 30°
2026-05-06 00:46 18.45147 -69.92176 278 ft 46 kts 24°
2026-05-06 00:46 18.45325 -69.92120 101 ft 19 kts 52°
2026-05-06 00:46 18.45361 -69.92082 58 ft 3 kts 68°
2026-05-06 00:46 18.45370 -69.92071 51 ft 2 kts 71°
2026-05-06 00:47 18.45369 -69.92069 50 ft 0 kts 77°
2026-05-06 00:54 18.45370 -69.92068 53 ft 2 kts 80°
2026-05-06 00:54 18.45379 -69.92062 63 ft 1 kts 154°
2026-05-06 00:54 18.45364 -69.92083 66 ft 19 kts 244°
2026-05-06 00:54 18.45085 -69.92152 239 ft 55 kts 111°
2026-05-06 00:55 18.45197 -69.91659 351 ft 92 kts 74°
2026-05-06 00:55 18.45367 -69.90900 619 ft 122 kts 79°
2026-05-06 00:55 18.45557 -69.90009 828 ft 127 kts 75°
2026-05-06 00:55 18.45823 -69.89115 970 ft 132 kts 73°
2026-05-06 00:56 18.46097 -69.88195 1094 ft 136 kts 75°
2026-05-06 00:56 18.46269 -69.87205 1163 ft 135 kts 84°
2026-05-06 00:56 18.46345 -69.86245 1172 ft 129 kts 88°
2026-05-06 00:56 18.46297 -69.85270 1236 ft 137 kts 97°
2026-05-06 00:57 18.46210 -69.84596 1142 ft 141 kts 99°
2026-05-06 00:57 18.46062 -69.83269 1233 ft 134 kts 98°
2026-05-06 00:57 18.45951 -69.82297 1457 ft 133 kts 99°
2026-05-06 00:57 18.45872 -69.81644 1620 ft 133 kts 99°
2026-05-06 00:58 18.45757 -69.80691 1776 ft 136 kts 99°
2026-05-06 00:58 18.45645 -69.79675 1821 ft 140 kts 98°
2026-05-06 00:58 18.45542 -69.78650 1807 ft 141 kts 98°
2026-05-06 00:58 18.45439 -69.77615 1789 ft 142 kts 98°
2026-05-06 00:59 18.45330 -69.76576 1779 ft 143 kts 98°
2026-05-06 00:59 18.45214 -69.75533 1777 ft 144 kts 99°
2026-05-06 00:59 18.45093 -69.74493 1755 ft 142 kts 99°
2026-05-06 00:59 18.44964 -69.73470 1752 ft 139 kts 101°
2026-05-06 01:00 18.44822 -69.72457 1765 ft 140 kts 101°
2026-05-06 01:00 18.44676 -69.71457 1776 ft 140 kts 101°
2026-05-06 01:00 18.44525 -69.70440 1780 ft 141 kts 101°
2026-05-06 01:00 18.44372 -69.69418 1781 ft 141 kts 102°
2026-05-06 01:01 18.44217 -69.68402 1780 ft 142 kts 102°
2026-05-06 01:01 18.44058 -69.67372 1779 ft 142 kts 102°
2026-05-06 01:01 18.43895 -69.66338 1779 ft 142 kts 102°
2026-05-06 01:01 18.43729 -69.65307 1779 ft 143 kts 102°
2026-05-06 01:02 18.43564 -69.64284 1779 ft 143 kts 102°
2026-05-06 01:02 18.43414 -69.63236 1777 ft 145 kts 97°
2026-05-06 01:02 18.43471 -69.62191 1758 ft 142 kts 88°
2026-05-06 01:02 18.43507 -69.61159 1758 ft 140 kts 93°
2026-05-06 01:03 18.43507 -69.60136 1769 ft 139 kts 94°
2026-05-06 01:03 18.43498 -69.59114 1778 ft 139 kts 94°
2026-05-06 01:03 18.43488 -69.58102 1782 ft 139 kts 94°
2026-05-06 01:03 18.43479 -69.57083 1783 ft 140 kts 94°
2026-05-06 01:04 18.43471 -69.56075 1782 ft 140 kts 94°
2026-05-06 01:04 18.43462 -69.55025 1781 ft 140 kts 94°
2026-05-06 01:04 18.43453 -69.54023 1781 ft 140 kts 94°
2026-05-06 01:04 18.43444 -69.52996 1780 ft 140 kts 94°
2026-05-06 01:05 18.43435 -69.51977 1780 ft 140 kts 94°
2026-05-06 01:05 18.43426 -69.50951 1780 ft 140 kts 94°
2026-05-06 01:05 18.43417 -69.49930 1780 ft 140 kts 94°
2026-05-06 01:05 18.43408 -69.48910 1780 ft 140 kts 94°
2026-05-06 01:06 18.43399 -69.47886 1780 ft 140 kts 94°
2026-05-06 01:06 18.43389 -69.46853 1780 ft 140 kts 94°
2026-05-06 01:06 18.43381 -69.45826 1779 ft 140 kts 94°
2026-05-06 01:06 18.43372 -69.44814 1781 ft 140 kts 94°
2026-05-06 01:07 18.43362 -69.43788 1781 ft 140 kts 94°
2026-05-06 01:07 18.43351 -69.42761 1781 ft 140 kts 94°
2026-05-06 01:07 18.43340 -69.41732 1782 ft 140 kts 94°
2026-05-06 01:07 18.43328 -69.40722 1781 ft 140 kts 94°
2026-05-06 01:08 18.43315 -69.39695 1782 ft 139 kts 94°
2026-05-06 01:08 18.43301 -69.38669 1783 ft 139 kts 94°
2026-05-06 01:08 18.43286 -69.37659 1784 ft 139 kts 94°
2026-05-06 01:08 18.43265 -69.36648 1787 ft 137 kts 93°
2026-05-06 01:09 18.43231 -69.35641 1792 ft 137 kts 94°
2026-05-06 01:09 18.43194 -69.34636 1795 ft 137 kts 94°
2026-05-06 01:09 18.43156 -69.33630 1796 ft 137 kts 94°
2026-05-06 01:09 18.43120 -69.32636 1796 ft 137 kts 94°
2026-05-06 01:10 18.43083 -69.31633 1796 ft 137 kts 94°
2026-05-06 01:10 18.43046 -69.30624 1796 ft 137 kts 94°
2026-05-06 01:10 18.43010 -69.29618 1795 ft 137 kts 94°
2026-05-06 01:10 18.42974 -69.28621 1795 ft 137 kts 94°
2026-05-06 01:11 18.42937 -69.27611 1795 ft 137 kts 94°
2026-05-06 01:11 18.42901 -69.26604 1795 ft 137 kts 94°
2026-05-06 01:11 18.42865 -69.25608 1795 ft 137 kts 94°
2026-05-06 01:11 18.42829 -69.24604 1795 ft 138 kts 94°
2026-05-06 01:12 18.42793 -69.23598 1795 ft 137 kts 94°
2026-05-06 01:12 18.42782 -69.22588 1792 ft 136 kts 89°
2026-05-06 01:12 18.42874 -69.21599 1795 ft 135 kts 85°
2026-05-06 01:12 18.42993 -69.20616 1796 ft 135 kts 85°
2026-05-06 01:13 18.43117 -69.19650 1797 ft 135 kts 85°
2026-05-06 01:13 18.43248 -69.18659 1797 ft 136 kts 84°
2026-05-06 01:13 18.43382 -69.17677 1797 ft 137 kts 84°
2026-05-06 01:13 18.43521 -69.16681 1797 ft 137 kts 84°
2026-05-06 01:14 18.43800 -69.14691 1798 ft 137 kts 83°
2026-05-06 01:14 18.43937 -69.13698 1798 ft 137 kts 83°
2026-05-06 01:14 18.44064 -69.12699 1802 ft 136 kts 83°
2026-05-06 01:15 18.44182 -69.11722 1806 ft 136 kts 84°
2026-05-06 01:15 18.44302 -69.10723 1807 ft 136 kts 84°
2026-05-06 01:15 18.44332 -69.09730 1808 ft 136 kts 92°
2026-05-06 01:15 18.44291 -69.08737 1808 ft 136 kts 93°
2026-05-06 01:16 18.44238 -69.07737 1808 ft 136 kts 94°
2026-05-06 01:16 18.44181 -69.06749 1807 ft 137 kts 94°
2026-05-06 01:16 18.44123 -69.05750 1807 ft 137 kts 94°
2026-05-06 01:16 18.44065 -69.04752 1807 ft 137 kts 94°
2026-05-06 01:17 18.44006 -69.03750 1807 ft 137 kts 94°
2026-05-06 01:17 18.43948 -69.02755 1807 ft 137 kts 94°
2026-05-06 01:17 18.43889 -69.01751 1807 ft 137 kts 94°
2026-05-06 01:17 18.43830 -69.00754 1807 ft 137 kts 94°
2026-05-06 01:18 18.43803 -68.99801 1846 ft 123 kts 87°
2026-05-06 01:18 18.43865 -68.98949 1684 ft 116 kts 80°
2026-05-06 01:18 18.43982 -68.98076 1532 ft 123 kts 81°
2026-05-06 01:18 18.44088 -68.97193 1378 ft 128 kts 81°
2026-05-06 01:19 18.44219 -68.96215 1167 ft 137 kts 78°
2026-05-06 01:19 18.44418 -68.95233 992 ft 138 kts 73°
2026-05-06 01:19 18.44675 -68.94255 802 ft 139 kts 71°
2026-05-06 01:19 18.44958 -68.93302 580 ft 127 kts 70°
2026-05-06 01:20 18.45156 -68.92464 518 ft 109 kts 91°
2026-05-06 01:20 18.45083 -68.91849 410 ft 53 kts 108°
2026-05-06 01:20 18.45022 -68.91630 319 ft 23 kts 121°
2026-05-06 01:20 18.44985 -68.91505 265 ft 12 kts 107°
2026-05-06 01:21 18.44995 -68.91462 250 ft 1 kts 309°
2026-05-06 01:21 18.44983 -68.91452 256 ft 2 kts 186°
2026-05-06 01:21 18.44981 -68.91451 244 ft 0 kts 193°
2026-05-06 01:21 18.44980 -68.91451 244 ft 0 kts 203°
2026-05-06 01:25 18.44970 -68.91439 250 ft 13 kts 348°
2026-05-06 01:26 18.45038 -68.91694 366 ft 70 kts 281°
2026-05-06 01:26 18.44679 -68.92119 538 ft 101 kts 201°
2026-05-06 01:26 18.43862 -68.92137 580 ft 139 kts 186°
2026-05-06 01:26 18.42886 -68.92386 516 ft 133 kts 194°
2026-05-06 01:27 18.42106 -68.92639 613 ft 97 kts 197°
2026-05-06 01:27 18.41732 -68.92867 470 ft 37 kts 258°
2026-05-06 01:27 18.41663 -68.93126 230 ft 35 kts 271°
2026-05-06 01:27 18.41624 -68.93300 96 ft 15 kts 275°
2026-05-06 01:28 18.41618 -68.93332 76 ft 0 kts 284°